Miscellaneous Local Product
Issued by NWS North Platte, NE

Home | Current Version | Previous Version | Graphics & Text | Print | Product List | Glossary On
Versions: 1 2 3 4 5 6 7 8 9 10 11 12 13 14 15 16 17 18 19 20 21 22 23 24 25 26 27 28 29 30 31 32 33 34 35 36 37 38 39 40 41 42 43 44 45 46 47 48 49 50
183
AXUS43 KLBF 121710
MISLBF


WESTERN AND NORTH CENTRAL NEBRASKA HOURLY WEATHER ROUNDUP
NATIONAL WEATHER SERVICE NORTH PLATTE NE
1100 AM CST FRI FEB 12 2016

NOTE: "FAIR" INDICATES FEW OR NO CLOUDS BELOW 12,000 FEET WITH NO
SIGNIFICANT WEATHER AND/OR OBSTRUCTIONS TO VISIBILITY.

NOTE: STATIONS NOT REPORTING VARIABLES SUCH AS SKY/WEATHER OR
PRESSURE ARE PROVIDED BY THE NEBRASKA DEPARTMENT OF
ROADS...RAWS...AND APRS NETWORKS...AND ARE NOT UNDER
NATIONAL WEATHER SERVICE QUALITY CONTROL.

...OBSERVATIONS IN AND NEAR THE EASTERN PANHANDLE OF NEBRASKA...

CITY           SKY/WX    TMP DP  RH WIND       PRES   REMARKS
PINE RIDGE     CLOUDY    30  27  88 NE5       30.40S WCI  25
CHADRON        CLOUDY    33  29  85 E5        30.40S WCI  29
ALLIANCE       CLOUDY    30  29  96 NE10      30.36S WCI  21
SIDNEY         CLOUDY    40  31  70 NE15      30.35R WCI  32
CRESCENT LAKE    N/A     31  32 100 NE8         N/A  WCI  24
BIG SPRINGS      N/A     32  32 100 E5          N/A  WCI  27
$$

...OBSERVATIONS IN NORTH CENTRAL NEBRASKA...

CITY           SKY/WX    TMP DP  RH WIND       PRES   REMARKS
VALENTINE      CLOUDY    24  19  81 NE8       30.46R WCI  15
THEDFORD       CLOUDY    29  28  96 N9        30.44R FOG     WCI  21
AINSWORTH      CLOUDY    24  21  87 N9        30.45R WCI  14
O`NEILL        CLOUDY    21  17  82 N14       30.49R WCI   8
ORD            CLOUDY    25  23  92 NE13      30.46R FOG     WCI  14
BROKEN BOW     CLOUDY    31  27  85 N12       30.42R WCI  22
VALENTINE NWR    N/A     24  23  95 N9          N/A  WCI  14
BUTTE            N/A     18  15  88 N7          N/A  WCI   9
HALSEY           N/A     28  27  94 N6          N/A  WCI  22
EWING            N/A     22  16  78 N6G14       N/A  WCI  15
$$

...OBSERVATIONS IN SOUTHWEST NEBRASKA AND FAR NORTHEAST COLORADO...

CITY           SKY/WX    TMP DP  RH WIND       PRES   REMARKS
HOLYOKE        FAIR      37  32  81 NE12      30.37R WCI  30
IMPERIAL       CLOUDY    33  30  88 E9        30.40R WCI  25
OGALLALA       CLOUDY    33  32  96 E5        30.40R FOG     WCI  28
NORTH PLATTE   CLOUDY    35  29  78 N9        30.41R WCI  28
MCCOOK         CLOUDY    33  29  85 E6        30.43R WCI  28
LEXINGTON      CLOUDY    35  29  80 N12       30.43R WCI  26
PAXTON           N/A     34  32  93 N6          N/A  WCI  29
STAPLETON        N/A     32  29  87 CALM        N/A
GOTHENBURG       N/A     34  28  79 N7          N/A  WCI  28
CALLAWAY         N/A     33  29  86 N12         N/A  WCI  24
$$

...OBSERVATIONS IN CENTRAL LINCOLN COUNTY AREA...

CITY           SKY/WX    TMP DP  RH WIND       PRES   REMARKS
N.P. AIRPORT   CLOUDY    35  29  78 N9        30.41R WCI  28
N.P. DOWNTOWN    N/A     34  29  83 N8          N/A  WCI  27
N.P. SOUTHEAST   N/A     35  29  80 N5G12       N/A  WCI  31
N.P. HILLCREST   N/A     34  30  85 NE12        N/A  WCI  25
$$

...SOME OBSERVATIONS FROM AROUND THE REGION...

CITY           SKY/WX    TMP DP  RH WIND       PRES   REMARKS
DENVER         CLOUDY    42  27  55 W7        30.31R
LARAMIE        CLOUDY    38  25  59 NE9       30.31S WCI  31
CHEYENNE       CLOUDY    45  26  47 CALM      30.32R
SCOTTSBLUFF    CLOUDY    35  29  78 NE15      30.37R WCI  25
RAPID CITY     CLOUDY    28  26  92 E5        30.41R FOG     WCI  23
BISMARCK       CLOUDY     9  -2  61 NE6       30.61R WCI  -1
PIERRE         LGT SNOW  21  15  78 NE9       30.53R WCI  11
WINNER         CLOUDY    23  14  68 NE8       30.51R WCI  14
SIOUX FALLS    MOSUNNY   11  -1  58 N18       30.52R WCI  -7
OMAHA          CLOUDY    24  15  68 N22       30.49R WCI   9
GRAND ISLAND   CLOUDY    27  23  85 NE8       30.46R WCI  19
KANSAS CITY    PTSUNNY   34  23  64 N18G25    30.41R WCI  23
WICHITA        PTSUNNY   36  27  69 NE18G25   30.41R WCI  26
OKLAHOMA CITY  MOSUNNY   52  33  48 N13       30.35R
LIBERAL        SUNNY     48  32  53 E7        30.38R
HAYS           CLOUDY    32  21  64 NE15      30.45R WCI  22
GOODLAND       MOSUNNY   43  31  62 E9        30.36R
$$




USA.gov is the U.S. government's official web portal to all federal, state and local government web resources and services.